Meath Environmental Platform

Observations for Trim Market St

Time AQI Temp °C Hum % Pres Pa CO μg/m³ H₂S μg/m³ NO μg/m³ NO₂ μg/m³ O₃ μg/m³ SO₂ μg/m³ PM1 μg/m³ PM2.5 μg/m³ PM10 μg/m³
Thursday 27 August 2026
07:18 2 18.2 84 2,147,483,647 0.29 0 2.12 3.76 49.23 0 17.81 20.62 31.04
07:16 2 18.2 84 2,147,483,647 0.27 0 2.13 1.46 53.13 0 17.81 20.16 31.58
07:11 2 18.1 84 2,147,483,647 0.28 0 2.12 2.32 52.03 0 17.81 19.68 31.56
07:09 2 18.1 84 2,147,483,647 0.27 0 2.12 1.86 51.13 0 18.53 20.61 32.65
07:05 2 18.1 84 2,147,483,647 0.28 0 2.13 1.81 51.97 0 19.24 21.07 32.62
07:00 2 18.1 84 2,147,483,647 0.3 0 2.15 2.3 53.29 0 18.53 20.13 32.05
06:57 2 18.1 84 2,147,483,647 0.3 0 2.18 3.21 55.2 0 16.39 18.73 28.78
06:56 2 18 84 2,147,483,647 0.37 0 2.18 11.62 47.29 0 18.53 20.59 31.5
06:55 2 18 84 2,147,483,647 0.3 0 2.19 1.88 53.14 0 17.81 21.05 32.02
06:54 2 18 84 2,147,483,647 0.3 0 2.17 4.99 54.86 0 17.1 20.12 30.93
06:53 2 18 84 2,147,483,647 0.31 0 2.17 9.49 42.43 0 16.39 18.25 28.21
06:52 2 18 84 2,147,483,647 0.3 0 2.18 2.65 49.45 0 16.39 18.25 27.67
06:51 2 18 84 2,147,483,647 0.28 0 2.18 1.21 55.04 0 16.39 19.17 29.82
06:50 2 18 84 2,147,483,647 0.29 0 2.17 2.69 57.85 0 18.53 20.57 32.54
06:49 2 18 84 2,147,483,647 0.3 0 2.16 2.01 52.28 0 17.1 19.17 30.91
06:48 2 18 84 2,147,483,647 0.31 0 2.17 3.56 52.1 0 15.68 18.71 28.19
06:47 2 18 84 2,147,483,647 0.31 0 2.17 5.91 52.21 0 18.53 19.64 29.82
06:46 2 18 84 2,147,483,647 0.3 0 2.16 2.6 52.86 0 17.81 19.64 29.82
06:45 2 18 84 2,147,483,647 0.31 0 2.14 3.56 51.69 0 17.81 20.57 33.08
06:44 2 18 84 2,147,483,647 0.29 0 2.15 1.5 57.62 0 17.81 20.57 32.54